Location: Celina Division
(33.3022°N, 96.7580°W)
Time: 08:14:15
(UTC+00:00)

DELTA 2 R/B (1) - Pass Details

Date: 08 December 2021
Orbit: 790 x 803 km, 39.6° (Epoch: 17 January)

Event Time Altitude Azimuth Distance (km) Brightness Sun altitude
Exits shadow 12:12:17 19° 302° (WNW) 1,815 4.8 -13.6°
Maximum altitude 12:16:02 47° 8° (N) 1,042 4.1 -12.9°
Drops below altitude 10° 12:21:21 10° 82° (E) 2,347 7.1 -11.8°
Sets 12:23:56 0° 88° (E) 3,277 8.2 -11.3°
